TimeEST,TemperatureF,Dew PointF,Humidity,Sea Level PressureIn,VisibilityMPH,Wind Direction,Wind SpeedMPH,Gust SpeedMPH,PrecipitationIn,Events,Conditions,WindDirDegrees,DateUTC
12:14 AM,28.9,20.7,71,29.33,7.0,West,23.0,29.9,N/A,Snow,Light Snow,280,2013-01-31 05:14:00
12:34 AM,28.4,19.2,69,29.34,10.0,WNW,20.7,32.2,N/A,,Overcast,290,2013-01-31 05:34:00
12:54 AM,28.2,19.4,70,29.36,7.0,West,20.7,31.1,N/A,Snow,Light Snow,280,2013-01-31 05:54:00
1:14 AM,28.0,19.4,70,29.37,10.0,WNW,23.0,27.6,N/A,Snow,Light Snow,290,2013-01-31 06:14:00
1:34 AM,27.5,19.6,72,29.37,4.0,West,21.9,28.8,N/A,Snow,Light Snow,280,2013-01-31 06:34:00
1:54 AM,27.5,18.5,69,29.38,10.0,WNW,21.9,25.3,N/A,,Overcast,290,2013-01-31 06:54:00
2:14 AM,27.3,16.9,65,29.39,10.0,WNW,18.4,31.1,N/A,,Overcast,290,2013-01-31 07:14:00
2:34 AM,27.0,17.8,68,29.41,10.0,West,17.3,21.9,N/A,Snow,Light Snow,280,2013-01-31 07:34:00
2:54 AM,26.2,19.2,75,29.42,1.0,West,16.1,25.3,N/A,Snow,Light Snow,280,2013-01-31 07:54:00
3:14 AM,25.2,19.2,78,29.44,0.8,West,23.0,28.8,N/A,Snow,Snow,280,2013-01-31 08:14:00
3:34 AM,25.2,18.0,74,29.44,3.0,West,16.1,23.0,N/A,Snow,Light Snow,280,2013-01-31 08:34:00
3:54 AM,25.3,16.0,68,29.44,5.0,WNW,23.0,28.8,N/A,Snow,Light Snow,290,2013-01-31 08:54:00
4:14 AM,25.2,16.2,69,29.45,4.0,WNW,13.8,33.4,N/A,Snow,Light Snow,290,2013-01-31 09:14:00
4:34 AM,25.2,16.7,70,29.46,7.0,WNW,16.1,23.0,N/A,Snow,Light Snow,290,2013-01-31 09:34:00
4:54 AM,24.8,16.3,70,29.46,4.0,West,23.0,32.2,N/A,Snow,Light Snow,280,2013-01-31 09:54:00
5:14 AM,24.8,15.3,67,29.48,7.0,West,21.9,32.2,N/A,,Overcast,280,2013-01-31 10:14:00
5:34 AM,24.8,15.4,68,29.49,7.0,West,23.0,28.8,N/A,Snow,Light Snow,280,2013-01-31 10:34:00
5:54 AM,24.6,14.9,67,29.50,7.0,WNW,24.2,28.8,N/A,Snow,Light Snow,290,2013-01-31 10:54:00
6:14 AM,24.3,15.6,70,29.51,5.0,WNW,16.1,23.0,N/A,Snow,Light Snow,290,2013-01-31 11:14:00
6:34 AM,24.1,16.0,71,29.52,5.0,WNW,17.3,23.0,N/A,Snow,Light Snow,290,2013-01-31 11:34:00
6:54 AM,24.3,15.3,69,29.52,7.0,West,18.4,25.3,N/A,,Overcast,280,2013-01-31 11:54:00
7:14 AM,24.3,14.5,67,29.54,7.0,West,17.3,26.5,N/A,,Overcast,280,2013-01-31 12:14:00
7:34 AM,23.9,14.4,67,29.55,7.0,West,16.1,24.2,N/A,Snow,Light Snow,280,2013-01-31 12:34:00
7:54 AM,23.9,13.8,65,29.56,7.0,West,19.6,25.3,N/A,,Overcast,280,2013-01-31 12:54:00
8:14 AM,23.7,14.2,67,29.56,7.0,West,13.8,18.4,N/A,,Overcast,280,2013-01-31 13:14:00
8:34 AM,23.7,15.3,70,29.57,5.0,West,13.8,18.4,N/A,Snow,Light Snow,280,2013-01-31 13:34:00
8:54 AM,23.7,14.7,69,29.58,5.0,West,13.8,25.3,N/A,,Haze,280,2013-01-31 13:54:00
9:14 AM,23.5,15.6,72,29.59,1.8,West,19.6,27.6,N/A,Snow,Light Snow,280,2013-01-31 14:14:00
9:34 AM,23.9,14.9,69,29.60,4.0,West,18.4,26.5,N/A,Snow,Light Snow,270,2013-01-31 14:34:00
9:53 AM,23.9,14.5,67,29.61,5.0,West,15.0,29.9,N/A,,Haze,270,2013-01-31 14:53:00
10:19 AM,23.5,16.9,76,29.62,0.5,West,16.1,26.5,N/A,Snow,Light Snow,270,2013-01-31 15:19:00
10:34 AM,23.9,16.5,73,29.63,1.5,West,15.0,21.9,N/A,Snow,Light Snow,270,2013-01-31 15:34:00
10:54 AM,23.9,15.3,70,29.64,3.0,West,16.1,25.3,N/A,Snow,Light Snow,280,2013-01-31 15:54:00
11:14 AM,23.9,13.5,64,29.65,4.0,WNW,19.6,29.9,N/A,,Haze,290,2013-01-31 16:14:00
11:34 AM,23.9,12.2,61,29.66,7.0,West,20.7,32.2,N/A,,Overcast,280,2013-01-31 16:34:00
12:14 PM,24.8,14.9,66,29.67,2.0,West,18.4,24.2,N/A,Snow,Light Snow,280,2013-01-31 17:14:00
12:34 PM,23.9,15.3,70,29.67,1.5,West,15.0,24.2,N/A,Snow,Light Snow,270,2013-01-31 17:34:00
12:53 PM,23.2,14.7,70,29.67,1.0,West,18.4,25.3,N/A,Snow,Light Snow,280,2013-01-31 17:53:00
1:14 PM,23.7,13.1,64,29.67,5.0,West,16.1,23.0,N/A,,Haze,270,2013-01-31 18:14:00
1:33 PM,23.9,14.5,67,29.67,2.5,West,15.0,-,N/A,Snow,Light Snow,270,2013-01-31 18:33:00
1:54 PM,24.1,13.8,65,29.68,4.0,West,15.0,-,N/A,Snow,Light Snow,260,2013-01-31 18:54:00
2:13 PM,23.0,15.3,72,29.69,0.5,West,17.3,23.0,N/A,Snow,Light Snow,280,2013-01-31 19:13:00
2:34 PM,23.7,13.1,64,29.69,7.0,West,11.5,19.6,N/A,,Overcast,280,2013-01-31 19:34:00
2:54 PM,23.5,11.3,60,29.70,7.0,West,13.8,25.3,N/A,,Overcast,270,2013-01-31 19:54:00
3:14 PM,22.3,13.6,69,29.71,1.5,West,15.0,20.7,N/A,Snow,Light Snow,280,2013-01-31 20:14:00
3:34 PM,22.8,12.2,64,29.72,10.0,West,15.0,20.7,N/A,,Overcast,270,2013-01-31 20:34:00
3:54 PM,23.9,12.2,61,29.72,10.0,West,12.7,19.6,N/A,,Overcast,260,2013-01-31 20:54:00
4:14 PM,22.8,11.8,63,29.73,7.0,West,15.0,21.9,N/A,Snow,Light Snow,270,2013-01-31 21:14:00
4:34 PM,22.3,11.1,62,29.74,7.0,West,13.8,20.7,N/A,,Overcast,280,2013-01-31 21:34:00
4:54 PM,21.9,14.7,74,29.74,0.8,West,13.8,23.0,N/A,Snow,Light Snow,280,2013-01-31 21:54:00
5:14 PM,21.4,11.3,65,29.75,3.0,WNW,15.0,27.6,N/A,Snow,Light Snow,290,2013-01-31 22:14:00
5:34 PM,21.2,11.1,65,29.75,5.0,West,12.7,19.6,N/A,Snow,Light Snow,280,2013-01-31 22:34:00
5:54 PM,20.8,10.2,64,29.76,7.0,WNW,16.1,20.7,N/A,,Overcast,290,2013-01-31 22:54:00
6:14 PM,20.3,12.6,72,29.77,4.0,WNW,11.5,17.3,N/A,Snow,Light Snow,290,2013-01-31 23:14:00
6:34 PM,20.1,12.2,71,29.78,5.0,West,11.5,16.1,N/A,Snow,Light Snow,280,2013-01-31 23:34:00
6:54 PM,19.9,11.8,71,29.79,10.0,West,10.4,17.3,N/A,Snow,Light Snow,280,2013-01-31 23:54:00
7:14 PM,19.8,11.3,70,29.80,7.0,West,13.8,17.3,N/A,Snow,Light Snow,270,2013-02-01 00:14:00
7:33 PM,19.4,11.8,72,29.81,10.0,West,9.2,-,N/A,,Overcast,280,2013-02-01 00:33:00
8:13 PM,19.4,11.8,72,29.83,7.0,West,8.1,-,N/A,Snow,Light Snow,270,2013-02-01 01:13:00
8:34 PM,19.4,13.1,76,29.83,3.0,West,5.8,-,N/A,Snow,Light Snow,280,2013-02-01 01:34:00
8:53 PM,19.9,12.9,74,29.84,5.0,West,10.4,-,N/A,Snow,Light Snow,280,2013-02-01 01:53:00
9:14 PM,19.8,12.6,74,29.84,4.0,West,10.4,-,N/A,Snow,Light Snow,280,2013-02-01 02:14:00
9:34 PM,19.4,12.6,75,29.84,7.0,West,8.1,-,N/A,Snow,Light Snow,280,2013-02-01 02:34:00
9:54 PM,19.4,12.2,74,29.85,7.0,West,9.2,-,N/A,,Overcast,280,2013-02-01 02:54:00
10:14 PM,19.2,11.8,73,29.86,7.0,West,8.1,-,N/A,Snow,Light Snow,280,2013-02-01 03:14:00
10:34 PM,19.0,12.0,74,29.86,7.0,West,8.1,-,N/A,,Overcast,270,2013-02-01 03:34:00
10:54 PM,19.0,11.8,74,29.87,7.0,West,6.9,-,N/A,,Overcast,280,2013-02-01 03:54:00
11:14 PM,18.9,11.8,74,29.87,7.0,West,8.1,-,N/A,,Overcast,280,2013-02-01 04:14:00
11:34 PM,18.5,11.3,73,29.87,7.0,West,8.1,-,N/A,,Overcast,280,2013-02-01 04:34:00
11:54 PM,18.5,11.1,73,29.88,10.0,West,9.2,-,N/A,,Overcast,280,2013-02-01 04:54:00